Dewpoint
58 58 58 58 58 58 59 59 59 60 59 60 60 61 61 61 61 57 40 46 67 75 75 65 65 63 62 66 65 62 59 54 51 51 47 48 48 57 57 55 57 59 60 60 60
58 58 58 58 57 58 58 58 59 59 59 59 60 60 61 61 56 43 62 76 75 76 67 67 59 61 62 62 62 60 58 55 49 52 49 47 48 48 55 56 59 59 60 60 59
58 58 58 58 57 57 58 58 58 59 59 59 59 60 61 60 53 36 76 77 75 75 67 64 61 61 61 62 61 58 55 55 55 52 53 48 55 50 51 56 59 59 59 59 58
58 57 57 57 57 57 57 58 58 58 58 59 59 60 61 57 43 46 77 77 77 71 64 64 60 58 59 58 58 54 56 55 55 54 50 48 52 50 53 56 58 60 59 59 57
57 57 57 56 56 57 57 57 57 58 58 59 59 60 57 49 35 59 75 76 70 66 62 61 58 56 53 55 55 55 55 56 55 55 50 48 49 48 52 55 56 59 59 58 57
57 56 56 56 56 56 57 57 57 57 58 59 59 60 53 33 49 61 54 66 60 61 62 62 57 43 41 45 51 50 50 50 51 52 48 47 47 48 52 53 52 53 59 59 58
56 56 56 56 56 56 56 56 57 57 58 59 60 57 47 37 44 48 52 58 57 57 58 55 44 41 40 40 45 50 48 50 51 52 51 51 47 46 51 53 52 53 52 53 58
56 56 56 56 56 56 56 57 57 57 59 61 61 56 42 35 46 43 47 50 53 56 53 48 45 42 44 47 47 50 49 48 52 54 50 55 51 48 50 51 52 52 52 52 52
56 56 56 56 55 55 55 56 57 58 60 62 57 55 35 52 41 49 48 47 51 51 47 47 44 39 45 47 43 42 41 48 51 52 46 50 52 52 48 48 49 50 50 51 51
56 55 55 56 55 55 55 56 56 57 58 56 49 46 40 34 34 37 48 49 47 46 45 44 43 45 45 47 40 41 37 45 51 48 50 48 51 50 51 47 48 48 47 48 49
56 56 55 55 55 55 53 50 47 47 48 39 33 37 25 30 30 39 42 46 46 40 39 37 37 40 42 41 44 43 43 41 51 53 56 54 55 55 54 48 48 49 49 48 48
56 56 55 56 56 55 53 47 43 34 34 43 38 33 26 22 28 36 42 42 42 38 36 31 32 44 43 41 41 41 41 44 51 52 54 56 56 56 55 51 50 50 50 49 48
55 55 54 55 55 52 48 44 44 33 31 31 35 25 23 25 31 35 39 39 36 33 30 29 40 41 40 39 40 39 24 30 44 46 51 55 53 56 53 55 62 56 51 51 49
55 55 54 55 52 46 41 42 40 34 32 28 26 25 22 22 21 27 36 32 25 23 23 27 34 40 40 39 27 14 14 16 39 39 39 44 41 47 51 52 58 59 51 49 51
56 55 54 53 51 44 43 34 34 34 30 24 21 18 18 18 19 20 32 29 25 22 21 19 24 31 36 28 29 25 23 19 18 30 41 45 42 46 52 52 54 58 55 52 50
55 54 54 52 50 45 43 34 36 33 28 15 15 14 17 17 15 22 23 23 23 21 21 25 22 24 25 24 26 23 20 20 19 35 39 44 41 46 51 52 54 54 57 58 54
54 53 52 51 46 42 36 39 35 30 34 13 18 16 15 16 17 18 19 18 20 24 24 24 19 24 22 20 23 21 17 20 21 30 37 43 41 44 49 55 57 55 56 59 56
52 52 52 47 43 42 40 41 39 32 30 17 16 15 15 12 17 17 18 17 17 17 17 17 17 19 22 20 21 22 24 21 16 32 39 46 46 48 51 56 60 56 58 59 57
52 51 49 50 49 43 43 41 38 32 23 8 11 13 15 12 16 16 16 14 12 13 17 14 17 15 17 17 20 19 19 20 16 40 42 44 48 50 53 56 58 56 53 56 57
54 50 47 49 44 42 44 40 27 25 34 34 17 15 15 13 16 14 17 21 25 27 27 24 21 11 6 7 9 28 16 12 19 33 35 39 44 45 50 55 57 57 57 54 60
53 50 42 44 43 47 43 34 28 23 35 39 37 35 31 16 15 16 24 28 26 25 26 33 29 20 14 12 9 8 9 18 14 36 38 38 41 53 52 56 56 56 53 51 48
50 49 42 43 45 46 38 29 35 28 35 38 40 40 38 24 27 34 31 32 27 25 26 33 18 16 17 16 9 14 12 14 21 33 40 41 44 56 55 59 53 53 57 56 48
52 50 39 39 41 36 37 28 29 28 30 31 33 35 32 28 34 36 34 30 27 31 31 31 28 20 24 29 28 20 20 27 15 32 39 42 49 57 55 49 60 54 55 57 58
55 48 43 43 40 33 36 33 33 30 30 32 35 32 31 32 31 32 32 30 29 31 57 43 21 17 25 34 32 27 27 19 28 31 40 48 47 53 52 49 61 65 66 67 68
54 48 48 43 38 36 34 36 34 34 35 37 37 32 34 35 38 38 38 33 30 48 37 29 25 27 29 26 25 29 32 31 24 33 28 48 46 50 47 59 63 64 66 66 66
49 49 48 47 36 42 39 40 34 34 36 33 34 30 32 40 39 39 38 38 38 37 35 32 29 32 32 28 33 23 28 30 25 32 52 52 52 53 58 60 61 64 64 64 65
52 52 52 47 43 40 40 38 35 38 38 34 30 31 37 36 35 35 34 33 34 34 30 31 30 33 30 34 31 28 34 33 32 43 51 50 52 52 52 55 58 61 63 62 62
Lifted_Index
16 16 16 16 16 16 16 16 16 15 15 15 15 15 14 13 11 9 7 4 1 -2 -4 -4 -4 -3 -2 -2 -1 -2 -2 -2 -2 -1 -1 -1 -2 -3 -3 -3 -4 -4 -4 -4 -3
16 16 16 16 16 16 16 16 16 16 15 15 15 15 14 13 10 7 5 3 -0 -3 -4 -4 -3 -2 -2 -2 -2 -2 -2 -2 -2 -1 -1 -1 -2 -2 -2 -3 -4 -4 -4 -4 -3
16 16 16 16 16 16 16 16 16 16 16 16 15 15 14 12 8 5 3 1 -1 -4 -5 -3 -2 -2 -2 -2 -2 -2 -2 -2 -2 -2 -2 -1 -1 -2 -2 -3 -4 -4 -4 -4 -3
16 16 16 16 16 16 16 16 16 16 15 15 15 15 13 10 6 4 2 -0 -2 -4 -4 -4 -3 -2 -2 -2 -2 -2 -2 -3 -3 -2 -2 -1 -1 -1 -2 -2 -3 -3 -4 -3 -3
17 16 16 16 16 16 16 15 15 15 15 15 15 14 12 8 5 4 2 0 -1 -3 -4 -4 -3 -2 -2 -2 -2 -3 -3 -3 -3 -3 -2 -1 -1 -1 -1 -2 -2 -3 -3 -3 -3
16 16 16 16 16 16 16 15 15 15 15 14 14 13 10 7 5 5 4 2 0 -1 -3 -3 -2 -1 -1 -1 -2 -3 -3 -3 -3 -3 -2 -1 -1 -1 -1 -1 -1 -1 -2 -3 -3
16 16 16 16 16 16 15 15 14 14 13 13 13 12 9 7 5 4 4 3 1 -1 -2 -2 -1 -0 -0 -1 -1 -2 -3 -3 -3 -3 -2 -2 -1 -0 -0 -1 -1 -1 -1 -1 -2
14 14 14 15 15 15 15 14 14 13 12 12 11 10 9 7 5 4 4 3 1 -0 -1 -1 0 1 0 -0 -0 -1 -2 -2 -3 -3 -2 -1 -1 -0 0 -0 -0 -0 0 -0 -0
13 13 13 14 15 15 15 14 13 12 11 10 9 8 8 7 5 4 4 3 2 0 -1 -0 0 1 1 0 -0 -1 -1 -2 -3 -3 -2 -1 -1 -0 0 0 0 0 1 1 1
12 12 12 13 14 14 14 12 11 10 9 8 7 7 7 7 6 5 3 2 2 1 0 -0 0 1 1 1 -0 -1 -1 -2 -3 -3 -2 -1 -1 -1 -0 0 1 1 1 1 1
11 12 12 13 13 13 12 10 8 7 7 7 6 6 6 6 6 5 3 2 2 2 1 0 1 1 1 1 0 -1 -1 -2 -3 -3 -2 -1 -1 -1 -1 -0 0 1 1 1 2
10 11 12 13 13 12 10 8 6 6 6 6 6 6 6 6 5 4 3 3 2 2 2 1 1 1 1 1 0 -1 -1 -1 -2 -2 -1 -1 -1 -2 -2 -2 -1 -0 0 1 1
9 11 12 12 11 10 9 7 6 6 6 5 5 5 5 5 5 4 3 3 3 3 3 2 1 1 1 0 -0 -0 -0 -1 -1 -1 -1 -1 -1 -2 -3 -3 -2 -1 -0 0 1
9 10 11 10 9 8 7 6 6 5 4 4 4 5 5 5 4 4 4 4 4 3 3 2 1 1 0 0 -0 -0 0 0 0 -0 -1 -1 -1 -1 -2 -3 -3 -2 -1 -0 0
10 10 11 9 7 6 6 6 5 3 2 3 4 4 4 4 4 4 4 4 4 3 2 1 0 -0 0 0 0 0 1 1 1 0 -0 -0 0 -0 -1 -2 -2 -2 -2 -1 -1
10 10 10 9 7 5 5 4 3 2 1 2 3 3 3 3 3 4 4 4 3 3 2 1 -0 -0 0 1 1 1 1 1 0 -0 -0 0 1 0 -0 -1 -2 -2 -2 -2 -2
9 9 9 7 6 5 4 3 1 1 1 1 2 3 3 2 2 3 3 3 3 2 1 1 0 0 1 1 2 2 1 0 -0 -1 -0 0 1 0 -0 -1 -1 -1 -2 -2 -2
7 6 6 6 5 4 2 1 0 0 0 1 1 2 2 1 1 2 2 2 2 1 1 0 0 0 1 1 2 2 1 0 -0 -1 -0 0 1 1 -0 -1 -0 -0 -2 -3 -3
5 4 3 3 4 3 1 0 -0 -0 -0 0 1 1 1 0 0 1 1 1 1 1 1 0 -0 0 1 1 2 2 1 0 -0 -0 0 0 1 1 0 -1 -0 -1 -2 -3 -3
3 2 2 2 2 1 0 -0 0 0 0 0 0 0 -0 -0 -0 0 0 0 0 1 1 0 0 -0 0 1 1 1 1 0 -0 -0 -0 0 0 0 -1 -1 -2 -2 -2 -2 -2
2 2 2 2 1 0 -0 -0 0 0 1 1 0 0 -0 -0 -0 -0 0 0 1 1 1 1 1 -0 -0 0 1 1 0 0 -0 -0 -0 -0 -0 -1 -2 -3 -4 -3 -2 -1 -1
1 1 2 1 0 -0 -0 0 0 0 1 0 0 0 0 -0 -0 -0 0 0 1 2 2 2 1 0 -0 -0 0 0 0 -0 -0 -0 -0 -0 -1 -1 -3 -4 -6 -5 -3 -2 -2
1 1 1 1 0 -0 0 0 0 1 1 1 0 0 0 0 0 0 0 1 1 2 2 2 1 0 -0 -0 -0 0 -0 -0 -0 -0 -1 -1 -1 -1 -2 -5 -7 -7 -6 -5 -5
1 1 1 1 1 0 0 1 1 1 1 1 1 1 1 1 0 0 0 1 1 2 2 2 1 0 -0 -0 0 0 -0 -0 -0 -0 -1 -2 -1 -1 -2 -5 -7 -8 -8 -7 -7
1 1 1 1 1 1 1 1 1 2 2 2 2 2 2 1 1 0 0 0 1 2 2 2 1 0 0 0 0 0 -0 -0 -0 -1 -1 -2 -2 -2 -3 -5 -7 -8 -8 -7 -7
2 2 1 1 2 2 2 2 2 2 3 3 3 3 3 2 2 1 1 1 1 1 2 2 2 1 0 0 0 -0 -1 -1 -1 -1 -3 -3 -3 -3 -3 -4 -5 -6 -6 -6 -6
4 3 2 1 1 2 2 2 2 3 3 3 4 4 3 3 2 1 1 1 1 1 2 2 2 2 1 0 -0 -0 -1 -1 -1 -2 -3 -4 -3 -3 -3 -3 -4 -5 -5 -5 -4